| time (UTC) | temp C | wind direction | speed KPH | gust KPH | rain 1hr cm | rain 24hr cm | rain mn cm | humidity % | barometer mb |
| 20260510164505 | 30 | 198 | 0.0 | 3.2 | 0.00 | 0.00 | 0.00 | 32 | 0.9 |
| 20260510163005 | 29 | 84 | 0.0 | 4.8 | 0.00 | 0.00 | 0.00 | 32 | 0.9 |
| 20260510161505 | 28 | 0.0 | 0.0 | 0.00 | 0.00 | 0.00 | 34 | 0.9 | |
| 20260510160005 | 28 | 158 | 0.0 | 3.2 | 0.00 | 0.00 | 0.00 | 35 | 0.9 |
| 20260510154505 | 28 | 0.0 | 0.0 | 0.00 | 0.00 | 0.00 | 37 | 0.9 | |
| 20260510153005 | 28 | 87 | 0.0 | 6.4 | 0.00 | 0.00 | 0.00 | 37 | 0.9 |
| 20260510151505 | 27 | 145 | 0.0 | 4.8 | 0.00 | 0.00 | 0.00 | 37 | 0.9 |
| 20260510150005 | 27 | 0.0 | 3.2 | 0.00 | 0.00 | 0.00 | 39 | 0.9 | |
| 20260510144505 | 26 | 22 | 0.0 | 3.2 | 0.00 | 0.00 | 0.00 | 41 | 0.9 |
| 20260510143005 | 24 | 107 | 0.0 | 3.2 | 0.00 | 0.00 | 0.00 | 44 | 0.9 |
| 20260510141505 | 24 | 0.0 | 0.0 | 0.00 | 0.00 | 0.00 | 47 | 0.9 | |
| 20260510140005 | 23 | 217 | 0.0 | 3.2 | 0.00 | 0.00 | 0.00 | 47 | 0.9 |
| 20260510134505 | 22 | 180 | 0.0 | 4.8 | 0.00 | 0.00 | 0.00 | 52 | 0.9 |
| 20260510133005 | 21 | 0.0 | 0.0 | 0.00 | 0.00 | 0.00 | 58 | 0.9 | |
| 20260510131506 | 20 | 0.0 | 0.0 | 0.00 | 0.00 | 0.00 | 64 | 0.9 | |
| 20260510130006 | 19 | 0.0 | 0.0 | 0.00 | 0.00 | 0.00 | 70 | 0.9 | |
| 20260510124506 | 18 | 0.0 | 0.0 | 0.00 | 0.00 | 0.00 | 74 | 0.9 | |
| 20260510123005 | 17 | 0.0 | 0.0 | 0.00 | 0.00 | 0.00 | 79 | 0.9 | |
| 20260510121505 | 16 | 0.0 | 0.0 | 0.00 | 0.00 | 0.00 | 82 | 0.9 | |
| 20260510120005 | 15 | 0.0 | 0.0 | 0.00 | 0.00 | 0.00 | 88 | 0.9 | |
| 20260510114505 | 15 | 0.0 | 0.0 | 0.00 | 0.00 | 0.00 | 90 | 0.9 | |
| 20260510113005 | 14 | 0.0 | 0.0 | 0.00 | 0.00 | 0.00 | 92 | 0.9 | |
| 20260510111505 | 13 | 0.0 | 0.0 | 0.00 | 0.00 | 0.00 | 92 | 0.9 | |
| 20260510110005 | 13 | 0.0 | 0.0 | 0.00 | 0.00 | 0.00 | 92 | 0.9 | |
| 20260510104505 | 13 | 0.0 | 0.0 | 0.00 | 0.00 | 0.00 | 92 | 0.9 | |
| 20260510103005 | 13 | 0.0 | 0.0 | 0.00 | 0.00 | 0.00 | 92 | 0.9 | |
| 20260510101505 | 13 | 0.0 | 0.0 | 0.00 | 0.00 | 0.00 | 91 | 0.9 | |
| 20260510100005 | 13 | 0.0 | 0.0 | 0.00 | 0.00 | 0.00 | 90 | 0.9 | |
| 20260510094505 | 13 | 0.0 | 0.0 | 0.00 | 0.00 | 0.00 | 90 | 0.9 | |
| 20260510093005 | 13 | 0.0 | 0.0 | 0.00 | 0.00 | 0.00 | 89 | 0.9 | |
| 20260510091505 | 14 | 0.0 | 0.0 | 0.00 | 0.00 | 0.00 | 89 | 0.9 | |
| 20260510090006 | 14 | 0.0 | 0.0 | 0.00 | 0.00 | 0.00 | 89 | 0.9 | |
| 20260510084506 | 15 | 0.0 | 0.0 | 0.00 | 0.00 | 0.00 | 87 | 0.9 | |
| 20260510083006 | 15 | 0.0 | 0.0 | 0.00 | 0.00 | 0.00 | 86 | 0.9 | |
| 20260510081506 | 15 | 0.0 | 0.0 | 0.00 | 0.00 | 0.00 | 86 | 0.9 | |
| 20260510080006 | 16 | 0.0 | 0.0 | 0.00 | 0.00 | 0.00 | 84 | 0.9 | |
| 20260510074506 | 16 | 0.0 | 0.0 | 0.00 | 0.00 | 0.00 | 83 | 0.9 | |
| 20260510073005 | 17 | 0.0 | 0.0 | 0.00 | 0.00 | 0.00 | 81 | 0.9 | |
| 20260510071505 | 17 | 0.0 | 0.0 | 0.00 | 0.00 | 0.00 | 80 | 0.9 | |
| 20260510070005 | 17 | 0.0 | 0.0 | 0.00 | 0.00 | 0.00 | 79 | 0.9 | |
| 20260510064505 | 18 | 0.0 | 0.0 | 0.00 | 0.00 | 0.00 | 78 | 0.9 | |
| 20260510063005 | 18 | 0.0 | 0.0 | 0.00 | 0.00 | 0.00 | 77 | 0.9 | |
| 20260510061505 | 18 | 0.0 | 0.0 | 0.00 | 0.00 | 0.00 | 77 | 0.9 | |
| 20260510060006 | 18 | 0.0 | 0.0 | 0.00 | 0.00 | 0.00 | 76 | 0.9 | |
| 20260510054505 | 19 | 0.0 | 0.0 | 0.00 | 0.00 | 0.00 | 75 | 0.9 | |
| 20260510053005 | 19 | 225 | 0.0 | 6.4 | 0.00 | 0.00 | 0.00 | 75 | 0.9 |
| 20260510051505 | 19 | 216 | 0.0 | 3.2 | 0.00 | 0.00 | 0.00 | 75 | 0.9 |
| 20260510050005 | 19 | 270 | 0.0 | 3.2 | 0.00 | 0.00 | 0.00 | 75 | 0.9 |
| 20260510044505 | 18 | 0.0 | 3.2 | 0.00 | 0.00 | 0.00 | 75 | 0.9 | |
| 20260510043005 | 18 | 0.0 | 0.0 | 0.00 | 0.00 | 0.00 | 74 | 0.9 | |
| 20260510041506 | 18 | 0.0 | 0.0 | 0.00 | 0.00 | 0.00 | 74 | 0.9 | |
| 20260510040006 | 19 | 0.0 | 0.0 | 0.00 | 0.00 | 0.00 | 72 | 0.9 | |
| 20260510034506 | 19 | 0.0 | 0.0 | 0.00 | 0.00 | 0.00 | 72 | 0.9 | |
| 20260510033006 | 19 | 0.0 | 0.0 | 0.00 | 0.00 | 0.00 | 71 | 0.9 | |
| 20260510031506 | 19 | 0.0 | 0.0 | 0.00 | 0.00 | 0.00 | 70 | 0.9 | |
| 20260510030005 | 19 | 0.0 | 0.0 | 0.00 | 0.00 | 0.00 | 69 | 0.9 | |
| 20260510024505 | 19 | 0.0 | 0.0 | 0.00 | 0.00 | 0.00 | 69 | 0.9 | |
| 20260510023005 | 20 | 0.0 | 0.0 | 0.00 | 0.00 | 0.00 | 68 | 0.9 | |
| 20260510021505 | 20 | 0.0 | 0.0 | 0.00 | 0.00 | 0.00 | 68 | 0.9 | |
| 20260510020005 | 20 | 0.0 | 0.0 | 0.00 | 0.00 | 0.00 | 68 | 0.9 | |
| 20260510014505 | 19 | 0.0 | 0.0 | 0.00 | 0.00 | 0.00 | 68 | 0.9 | |
| 20260510013005 | 20 | 0.0 | 0.0 | 0.00 | 0.00 | 0.00 | 66 | 0.9 | |
| 20260510011505 | 20 | 270 | 0.0 | 3.2 | 0.00 | 0.00 | 0.00 | 66 | 0.9 |
| 20260510010005 | 20 | 0.0 | 0.0 | 0.00 | 0.00 | 0.00 | 65 | 0.9 | |
| 20260510004505 | 20 | 0.0 | 0.0 | 0.00 | 0.00 | 0.00 | 63 | 0.9 | |
| 20260510003005 | 20 | 0.0 | 0.0 | 0.00 | 0.00 | 0.00 | 60 | 0.9 | |
| 20260510001505 | 21 | 0.0 | 0.0 | 0.00 | 0.00 | 0.00 | 58 | 0.9 | |
| 20260510000005 | 22 | 0.0 | 0.0 | 0.00 | 0.00 | 0.00 | 55 | 0.9 | |
| 20260509234505 | 22 | 0.0 | 0.0 | 0.00 | 0.00 | 0.00 | 53 | 0.9 | |
| 20260509233006 | 22 | 0.0 | 0.0 | 0.00 | 0.00 | 0.00 | 53 | 0.9 | |
| 20260509231506 | 23 | 0.0 | 0.0 | 0.00 | 0.00 | 0.00 | 51 | 0.9 | |
| 20260509230006 | 23 | 0.0 | 4.8 | 0.00 | 0.00 | 0.00 | 50 | 0.9 | |
| 20260509224506 | 23 | 0.0 | 0.0 | 0.00 | 0.00 | 0.00 | 50 | 0.9 | |
| 20260509223006 | 23 | 0.0 | 0.0 | 0.00 | 0.00 | 0.00 | 51 | 0.9 | |
| 20260509221505 | 24 | 0.0 | 1.6 | 0.00 | 0.00 | 0.00 | 49 | 0.9 | |
| 20260509220005 | 24 | 217 | 0.0 | 4.8 | 0.00 | 0.00 | 0.00 | 49 | 0.9 |
| 20260509214505 | 23 | 133 | 0.0 | 4.8 | 0.00 | 0.00 | 0.00 | 51 | 0.9 |
| 20260509213006 | 24 | 250 | 0.0 | 4.8 | 0.00 | 0.00 | 0.00 | 48 | 0.9 |
| 20260509211505 | 24 | 202 | 0.0 | 6.4 | 0.00 | 0.00 | 0.00 | 47 | 0.9 |
| 20260509210005 | 24 | 178 | 0.0 | 3.2 | 0.00 | 0.00 | 0.00 | 49 | 0.9 |
| 20260509204505 | 24 | 144 | 0.0 | 6.4 | 0.00 | 0.00 | 0.00 | 48 | 0.9 |
| 20260509203005 | 25 | 216 | 0.0 | 4.8 | 0.00 | 0.00 | 0.00 | 46 | 0.9 |
| 20260509201505 | 25 | 202 | 0.0 | 3.2 | 0.00 | 0.00 | 0.00 | 47 | 0.9 |
| 20260509200005 | 25 | 158 | 0.0 | 3.2 | 0.00 | 0.00 | 0.00 | 47 | 0.9 |
| 20260509194505 | 24 | 264 | 0.0 | 4.8 | 0.00 | 0.00 | 0.00 | 46 | 0.9 |
| 20260509193005 | 26 | 0.0 | 0.0 | 0.00 | 0.00 | 0.00 | 44 | 0.9 | |
| 20260509191505 | 25 | 146 | 0.0 | 4.8 | 0.00 | 0.00 | 0.00 | 45 | 0.9 |
| 20260509190006 | 25 | 253 | 0.0 | 4.8 | 0.00 | 0.00 | 0.00 | 45 | 0.9 |
| 20260509184506 | 25 | 196 | 0.0 | 6.4 | 0.00 | 0.00 | 0.00 | 45 | 0.9 |
| 20260509183006 | 25 | 238 | 0.0 | 3.2 | 0.00 | 0.00 | 0.00 | 44 | 0.9 |
| 20260509181506 | 25 | 143 | 0.0 | 3.2 | 0.00 | 0.00 | 0.00 | 45 | 0.9 |
| 20260509180006 | 25 | 207 | 0.0 | 3.2 | 0.00 | 0.00 | 0.00 | 43 | 0.9 |
| 20260509174506 | 25 | 0.0 | 0.0 | 0.00 | 0.00 | 0.00 | 43 | 0.9 | |
| 20260509173006 | 25 | 187 | 0.0 | 6.4 | 0.00 | 0.00 | 0.00 | 46 | 0.9 |
| 20260509171505 | 24 | 205 | 0.0 | 4.8 | 0.00 | 0.00 | 0.00 | 48 | 0.9 |
| 20260509170005 | 23 | 213 | 0.0 | 3.2 | 0.00 | 0.00 | 0.00 | 49 | 0.9 |